Simultaneous Nadir Overpasses (SNOs) Predictions

Prediction of SNOs between GOES-15 and METOP-C Satellite Orbit:

Table of predicted SNOs for the next 14.0 days since TLE Epoch: 4/2/2022
Index Date Time (GOES-15) GOES-15 Lat,Lon METOP-C Lat,Lon Distance(km) Time Diff (sec)
1 04/03/2022 06:21:31 0.07,-128.38 -0.90,-132.72 494.78 80
2 04/04/2022 06:03:31 0.06,-128.39 0.21,-127.73 75.03 80
3 04/05/2022 18:19:44 -0.08,-128.42 0.77,-132.30 441.44 80
4 04/06/2022 18:01:45 -0.07,-128.43 -0.35,-127.31 128.03 80
5 04/08/2022 06:18:04 0.09,-128.40 -0.67,-131.90 398.96 80
6 04/09/2022 06:00:04 0.08,-128.40 0.39,-126.90 170.18 80
7 04/10/2022 18:16:17 -0.10,-128.42 0.57,-131.47 347.24 80
8 04/11/2022 17:58:18 -0.09,-128.42 -0.55,-126.48 221.77 80
9 04/13/2022 06:14:36 0.10,-128.39 -0.52,-131.06 305.77 80
10 04/14/2022 05:56:36 0.09,-128.38 0.60,-126.07 263.05 80
11 04/15/2022 18:12:49 -0.10,-128.40 0.40,-130.64 254.81 80
